Lid_Strength_Index
5 7 9 7 6 7 7 8 10 9 8 9 10 10 9 7 6 6 6 5 5 4 3 2 1 1 1 1 1 0 1 0 0 0 1 0 1 0 -0 -0 -1 -2 -2 -2
6 8 6 5 5 7 7 8 10 9 8 10 10 11 9 7 7 6 6 6 5 5 4 3 2 1 1 1 1 1 1 0 0 0 -0 -0 1 0 -0 -0 -1 -2 -2 -2
7 6 5 6 6 7 8 8 10 12 10 8 10 13 12 8 6 6 6 5 4 5 5 3 2 2 2 2 1 1 1 0 0 -0 -1 0 0 0 1 0 -0 -1 -1 -2
6 5 6 6 7 6 8 6 7 9 10 11 8 15 12 9 9 8 7 6 5 4 4 3 3 2 2 2 1 1 1 0 0 -0 0 0 2 2 1 1 -0 -1 -1 -1
7 6 7 7 7 6 7 6 8 8 9 9 9 12 11 9 11 9 8 6 5 4 4 3 3 2 2 1 1 1 1 1 0 -0 -1 1 1 1 1 0 1 -1 -1 -2
6 4 5 6 5 5 5 7 7 8 9 12 10 10 12 11 11 9 8 6 5 4 4 3 2 2 2 1 1 1 1 1 0 0 0 1 1 1 1 1 1 1 0 -0
7 6 5 5 7 6 6 8 11 14 13 13 8 10 12 10 9 8 8 6 5 5 5 3 3 3 2 2 1 1 1 1 1 1 1 0 0 0 1 1 1 1 1 0
10 11 7 5 6 7 7 8 11 15 14 12 8 14 11 7 5 5 5 5 5 5 5 4 3 3 3 2 1 2 2 2 1 1 1 0 0 0 1 1 0 0 0 0
10 9 6 5 5 6 8 10 7 9 9 11 12 11 8 6 6 6 6 6 6 5 4 5 3 3 3 2 2 2 2 2 1 1 1 1 1 0 0 0 -0 0 -0 0
8 11 7 6 5 6 7 6 10 10 14 14 14 13 13 9 9 8 8 7 7 5 5 5 4 3 3 3 2 1 1 2 1 1 1 1 1 0 0 -0 0 -0 0 0
7 8 8 6 8 8 8 9 8 8 9 13 16 14 8 8 9 9 8 7 6 5 5 4 4 3 3 2 2 2 2 1 1 1 1 1 1 1 0 0 0 -0 -0 -0
6 8 10 9 6 5 7 8 8 11 12 10 15 14 8 8 7 7 7 6 5 5 4 4 3 3 3 3 2 2 2 2 1 1 1 1 1 1 1 1 0 -0 0 -0
7 8 11 10 8 6 8 7 7 7 8 12 14 14 8 8 7 7 7 6 5 5 4 4 3 3 3 3 2 2 2 2 2 1 1 1 1 1 1 1 0 0 0 0
5 8 10 13 11 8 9 8 7 8 10 10 13 11 9 9 9 7 6 5 5 5 4 4 4 3 3 3 3 3 2 1 1 1 1 1 1 1 1 1 0 0 0 0
7 10 8 8 8 8 8 8 8 8 8 13 12 12 10 8 8 7 6 5 5 5 4 4 4 3 3 3 3 3 2 2 1 1 2 2 2 0 1 0 0 0 0 0
5 9 8 9 9 8 9 8 7 7 8 9 10 12 8 7 6 6 6 5 5 5 4 3 3 3 3 3 2 2 2 2 2 2 3 2 1 1 0 0 0 0 0 0
7 8 10 11 9 10 11 9 8 8 7 9 12 10 7 7 6 6 5 5 5 4 4 3 3 3 2 2 2 2 2 2 2 3 4 3 1 1 1 1 0 0 1 0
7 8 9 11 9 15 9 6 7 7 7 7 8 7 6 6 5 4 4 4 4 4 3 3 3 3 2 1 1 1 1 1 3 3 3 4 4 2 2 1 1 1 1 1
6 7 10 12 12 10 8 8 7 8 8 6 7 6 6 5 5 5 5 4 4 4 3 3 2 2 1 2 1 1 1 1 1 2 3 3 3 4 2 2 1 1 1 1
6 6 9 10 13 14 9 6 5 5 10 5 6 6 5 5 9 7 4 4 4 4 3 3 3 2 2 1 1 1 2 1 2 1 1 2 2 3 3 3 2 1 1 1
9 9 10 11 12 10 6 6 6 11 11 5 5 5 5 6 6 4 4 4 3 3 3 3 3 3 2 1 1 2 1 2 1 1 0 0 0 1 1 0 0 1 1 1
10 11 11 10 11 13 5 6 9 7 5 4 4 4 4 4 4 4 4 4 4 4 4 3 3 3 2 2 1 2 2 1 0 0 1 1 0 0 1 0 1 1 1 2
11 9 11 10 11 6 4 5 4 4 4 4 4 4 4 5 4 4 4 4 4 3 4 3 3 3 2 2 2 3 2 1 1 1 1 1 1 0 0 1 1 1 1 2
7 5 9 8 7 6 5 4 3 3 4 3 3 4 4 4 4 5 5 4 4 4 4 4 4 4 4 3 2 1 1 1 1 1 1 1 1 1 0 1 1 1 1 1
7 6 7 8 6 5 4 4 4 3 3 3 3 4 4 4 4 4 4 4 4 4 3 4 4 4 4 3 3 3 2 1 2 1 1 1 1 1 1 1 1 1 1 2
5 6 8 9 5 5 5 3 3 3 4 3 3 4 3 3 4 4 4 4 4 4 3 4 4 4 4 4 3 2 3 2 3 3 2 1 1 1 1 1 1 3 6 8